FREGAT DEB, 45638

Orbit data source: Space-Track

FREGAT DEB, 45638 is space debris in LEO originally from a launch on Mon, 18 Jul 2011 UTC launched from the Tyuratam Missile And Space Complex (TTMTR). Debris objects in space refer to the collection of defunct objects orbiting the Earth. Examples of debris include non-operational satellites, rocket bodies, and fragments generated from explosions, collisions, or faulty payload assembly.

Loading next visibility...
Identifier
45638, 2011-037AE
Orbit
LEO
Country
Flag of CISCIS
Related business
Manufacturer
Lavochkin
Mission
Spacecraft
Bus & Motor
Unknown
Mass
Unknown
Launch date (UTC)
2011-07-18 (15 years ago)
Launch vehicle
Unknown
Launch site
Tyuratam Missile And Space Complex (TTMTR)
Object type
Payload
Rocket body
Debris
Shape & HBR
Unknown shape, 0.1 m
Radar Cross Section
Small (<0.1 m²)

Expand to show TLE details & history
Last TLE update: 14 hours ago

TLE from 14 hours ago
0 FREGAT DEB
1 45638U 11037AE  26035.83983167  .00058197  00000-0  38078-2 0  9997
2 45638  51.3968 234.7510 1180518 194.2706 162.1917 13.01413894248033
Epoch: 2026-02-04T20:09Z
TLE epoch observation values (Epoch: 2026-02-04T20:09:21.456Z)
Latitude
-0.00003°
Longitude
157.41093°
Altitude
2,123.737 km
Speed
6.449 km/s
True Right ascension
15h 39m 00s
True Declination
0° 00' 00"
Sunlit
Object was in daylight at epoch
Visualization orbit readout
Latitude
Unknown
Longitude
Unknown
Altitude
Unknown
Speed
Unknown
Apparent Right ascension
Unknown
Apparent Declination
Unknown
Sunlit
N/A
Visualization observer readout
Local Sidereal Time
12:13:11
Azimuth
Unknown
Elevation
Unknown
Doppler factor
Unknown
Orbital elements
Apogee altitude
2,158.403 km
Perigee altitude
355.706 km
Semi-major axis
7,635.192 km
Eccentricity
0.11805
Inclination
51.3968°
RAAN
234.751°
Arg. of periapsis
194.2706°
True anomaly
165.8149°
Mean anomaly
162.1917°
Eccentric anomaly
164.05036°
Mean motion
3.25322 °/min
Orbital period
110.66 mins
BSTAR
0.0038078
Loading maneuver chart data...
Computing Atmospheric mass density...
Loading historical data...
Loading historical data...
Loading historical data...
Loading historical data...
Loading historical data...
Loading historical data...
Loading historical data...

Documentation

Showing up to 5 results
|